Time,TemperatureF,DewpointF,PressureIn,WindDirection,WindDirectionDegrees,WindSpeedMPH,WindSpeedGustMPH,Humidity,HourlyPrecipIn,Conditions,Clouds,dailyrainin,SolarRadiationWatts/m^2,SoftwareType,DateUTC
2013-09-15 00:00:00,51.0,49.0,-100.00,South,180,0.0,-999.0,93,-99.99,,,-99.99,0.000000,,2013-09-15 04:00:00,
2013-09-15 00:43:00,51.0,49.0,-100.00,South,180,0.0,-999.0,93,-99.99,,,-99.99,0.000000,,2013-09-15 04:43:00,
2013-09-15 00:55:00,51.0,49.0,-100.00,South,180,0.0,-999.0,93,-99.99,,,-99.99,0.000000,,2013-09-15 04:55:00,
2013-09-15 01:00:00,51.0,49.0,-100.00,SSW,202,1.0,-999.0,92,-99.99,,,-99.99,0.000000,,2013-09-15 05:00:00,
2013-09-15 01:42:00,51.0,49.0,-100.00,SSW,202,1.0,-999.0,92,-99.99,,,-99.99,0.000000,,2013-09-15 05:42:00,
2013-09-15 01:52:00,51.0,49.0,-100.00,SSW,202,1.0,-999.0,92,-99.99,,,-99.99,0.000000,,2013-09-15 05:52:00,
2013-09-15 02:00:00,52.0,49.0,-100.00,South,180,2.0,-999.0,90,-99.99,,,-99.99,0.000000,,2013-09-15 06:00:00,
2013-09-15 02:42:00,52.0,49.0,-100.00,South,180,2.0,-999.0,90,-99.99,,,-99.99,0.000000,,2013-09-15 06:42:00,
2013-09-15 02:52:00,52.0,49.0,-100.00,South,180,2.0,-999.0,90,-99.99,,,-99.99,0.000000,,2013-09-15 06:52:00,
2013-09-15 04:00:00,54.0,47.0,-100.00,South,180,5.0,-999.0,78,-99.99,,,-99.99,0.000000,,2013-09-15 08:00:00,
2013-09-15 04:43:00,54.0,47.0,-100.00,South,180,5.0,-999.0,78,-99.99,,,-99.99,0.000000,,2013-09-15 08:43:00,
2013-09-15 04:52:00,54.0,47.0,-100.00,South,180,5.0,-999.0,78,-99.99,,,-99.99,0.000000,,2013-09-15 08:52:00,
2013-09-15 05:00:00,54.0,46.0,-100.00,SW,225,2.0,-999.0,74,-99.99,,,-99.99,0.000000,,2013-09-15 09:00:00,
2013-09-15 05:44:00,54.0,46.0,-100.00,SW,225,2.0,-999.0,74,-99.99,,,-99.99,0.000000,,2013-09-15 09:44:00,
2013-09-15 05:54:00,54.0,46.0,-100.00,SW,225,2.0,-999.0,74,-99.99,,,-99.99,0.000000,,2013-09-15 09:54:00,
2013-09-15 06:00:00,53.0,46.0,-100.00,West,270,1.0,-999.0,76,-99.99,,,-99.99,0.000000,,2013-09-15 10:00:00,
2013-09-15 06:43:00,53.0,46.0,-100.00,West,270,1.0,-999.0,76,-99.99,,,-99.99,0.000000,,2013-09-15 10:43:00,
2013-09-15 06:53:00,53.0,46.0,-100.00,West,270,1.0,-999.0,76,-99.99,,,-99.99,0.000000,,2013-09-15 10:53:00,
2013-09-15 07:00:00,54.0,45.0,-100.00,SW,225,2.0,-999.0,72,-99.99,,,-99.99,0.000000,,2013-09-15 11:00:00,
2013-09-15 07:42:00,54.0,45.0,-100.00,SW,225,2.0,-999.0,72,-99.99,,,-99.99,0.000000,,2013-09-15 11:42:00,
2013-09-15 07:52:00,54.0,45.0,-100.00,SW,225,2.0,-999.0,72,-99.99,,,-99.99,0.000000,,2013-09-15 11:52:00,
2013-09-15 08:00:00,54.0,46.0,-100.00,SSW,202,3.0,-999.0,74,-99.99,,,-99.99,1.160000,,2013-09-15 12:00:00,
2013-09-15 08:42:00,54.0,46.0,-100.00,SSW,202,3.0,-999.0,74,-99.99,,,-99.99,1.160000,,2013-09-15 12:42:00,
2013-09-15 08:52:00,54.0,46.0,-100.00,SSW,202,3.0,-999.0,74,-99.99,,,-99.99,1.160000,,2013-09-15 12:52:00,
2013-09-15 09:00:00,55.0,49.0,-100.00,SSW,202,2.0,-999.0,80,-99.99,,,-99.99,29.000000,,2013-09-15 13:00:00,
2013-09-15 09:42:00,55.0,49.0,-100.00,SSW,202,2.0,-999.0,80,-99.99,,,-99.99,29.000000,,2013-09-15 13:42:00,
2013-09-15 09:53:00,55.0,49.0,-100.00,SSW,202,2.0,-999.0,80,-99.99,,,-99.99,29.000000,,2013-09-15 13:53:00,
2013-09-15 15:00:00,58.0,58.0,-100.00,South,180,2.0,-999.0,101,0.01,,,-99.99,66.120003,,2013-09-15 19:00:00,
2013-09-15 15:42:00,58.0,58.0,-100.00,South,180,2.0,-999.0,101,0.01,,,-99.99,66.120003,,2013-09-15 19:42:00,
2013-09-15 15:52:00,58.0,58.0,-100.00,South,180,2.0,-999.0,101,0.01,,,-99.99,66.120003,,2013-09-15 19:52:00,
2013-09-15 16:00:00,58.0,58.0,-100.00,SSE,157,1.0,-999.0,100,-99.99,,,-99.99,54.520000,,2013-09-15 20:00:00,
2013-09-15 16:42:00,58.0,58.0,-100.00,SSE,157,1.0,-999.0,100,-99.99,,,-99.99,54.520000,,2013-09-15 20:42:00,
2013-09-15 16:53:00,58.0,58.0,-100.00,SSE,157,1.0,-999.0,100,-99.99,,,-99.99,54.520000,,2013-09-15 20:53:00,
2013-09-15 17:00:00,58.0,58.0,-100.00,SSE,157,3.0,-999.0,102,0.02,,,-99.99,47.560001,,2013-09-15 21:00:00,
2013-09-15 17:44:00,58.0,58.0,-100.00,SSE,157,3.0,-999.0,102,0.02,,,-99.99,47.560001,,2013-09-15 21:44:00,
2013-09-15 17:54:00,58.0,58.0,-100.00,SSE,157,3.0,-999.0,102,0.02,,,-99.99,47.560001,,2013-09-15 21:54:00,
2013-09-15 18:00:00,57.0,57.0,-100.00,SSE,157,2.0,-999.0,101,0.01,,,-99.99,40.599998,,2013-09-15 22:00:00,
2013-09-15 18:44:00,57.0,57.0,-100.00,SSE,157,2.0,-999.0,101,0.01,,,-99.99,40.599998,,2013-09-15 22:44:00,
2013-09-15 18:54:00,57.0,57.0,-100.00,SSE,157,2.0,-999.0,101,0.01,,,-99.99,40.599998,,2013-09-15 22:54:00,
2013-09-15 20:00:00,57.0,57.0,-100.00,SE,135,1.0,-999.0,101,-99.99,,,-99.99,5.800000,,2013-09-16 00:00:00,
2013-09-15 20:42:00,57.0,57.0,-100.00,SE,135,1.0,-999.0,101,-99.99,,,-99.99,5.800000,,2013-09-16 00:42:00,
2013-09-15 20:52:00,57.0,57.0,-100.00,SE,135,1.0,-999.0,101,-99.99,,,-99.99,5.800000,,2013-09-16 00:52:00,
2013-09-15 21:00:00,56.0,56.0,-100.00,SE,135,1.0,-999.0,102,-99.99,,,-99.99,1.160000,,2013-09-16 01:00:00,
2013-09-15 21:42:00,56.0,56.0,-100.00,SE,135,1.0,-999.0,102,-99.99,,,-99.99,1.160000,,2013-09-16 01:42:00,
2013-09-15 21:52:00,56.0,56.0,-100.00,SE,135,1.0,-999.0,102,-99.99,,,-99.99,1.160000,,2013-09-16 01:52:00,
2013-09-15 22:00:00,56.0,56.0,-100.00,South,180,0.0,-999.0,103,-99.99,,,-99.99,1.160000,,2013-09-16 02:00:00,
2013-09-15 22:42:00,56.0,56.0,-100.00,South,180,0.0,-999.0,103,-99.99,,,-99.99,1.160000,,2013-09-16 02:42:00,
2013-09-15 22:52:00,56.0,56.0,-100.00,South,180,0.0,-999.0,103,-99.99,,,-99.99,1.160000,,2013-09-16 02:52:00,
2013-09-15 23:00:00,56.0,56.0,-100.00,South,180,0.0,-999.0,104,0.01,,,-99.99,1.160000,,2013-09-16 03:00:00,
2013-09-15 23:45:00,56.0,56.0,-100.00,South,180,0.0,-999.0,104,0.01,,,-99.99,1.160000,,2013-09-16 03:45:00,
2013-09-15 23:55:00,56.0,56.0,-100.00,South,180,0.0,-999.0,104,0.01,,,-99.99,1.160000,,2013-09-16 03:55:00,